N5RML-1 Weather Reports


Display with metric or nautical units.
time (UTC)temp
F
wind
direction
speed
MPH
gust
MPH
rain 1hr
in
rain 24hr
in
rain mn
in
humidity
%
barometer
mb
20260508185523 76 57 3.0 8.0 0.00 0.00 0.00 80 1014.8
20260508184531 76 47 3.0 6.0 0.00 0.00 0.00 80 1014.7
20260508183521 76 76 2.0 6.0 0.00 0.00 0.00 80 1014.7
20260508182529 76 32 2.0 6.0 0.00 0.00 0.00 80 1014.6
20260508181537 77 119 4.0 5.0 0.00 0.00 0.00 80 1014.7
20260508180526 77 60 3.0 7.0 0.00 0.00 0.00 79 1014.6
20260508175554 77 199 4.0 8.0 0.00 0.00 0.00 79 1014.7
20260508174523 77 105 3.0 5.0 0.00 0.00 0.00 79 1014.5
20260508173531 77 149 3.0 5.0 0.00 0.00 0.00 78 1014.9
20260508172520 77 137 2.0 4.0 0.00 0.00 0.00 78 1015.2
20260508171547 78 24 3.0 5.0 0.00 0.00 0.00 76 1015.5
20260508170556 77 125 2.0 6.0 0.00 0.00 0.00 78 1015.3
20260508165546 77 60 4.0 6.0 0.00 0.00 0.00 77 1015.3
20260508164533 77 136 4.0 9.0 0.00 0.00 0.00 78 1015.2
20260508163524 77 120 3.0 7.0 0.00 0.00 0.00 79 1015.2
20260508162530 76 99 5.0 8.0 0.00 0.00 0.00 80 1015.3
20260508161540 75 114 3.0 5.0 0.00 0.00 0.00 81 1015.5
20260508160529 74 114 3.0 5.0 0.00 0.00 0.00 82 1015.7
20260508155537 74 72 3.0 6.0 0.00 0.00 0.00 82 1015.8
20260508154527 74 225 2.0 5.0 0.00 0.00 0.00 82 1015.9
20260508153554 74 123 4.0 8.0 0.00 0.00 0.00 81 1016.1
20260508152543 74 51 2.0 4.0 0.00 0.00 0.00 81 1016.0
20260508151532 74 102 4.0 9.0 0.00 0.00 0.00 81 1015.8
20260508150520 74 144 3.0 6.0 0.00 0.00 0.00 81 1015.7
20260508145528 74 141 2.0 4.0 0.00 0.00 0.00 79 1015.8
20260508144537 74 141 4.0 7.0 0.00 0.00 0.00 80 1015.9
20260508143546 74 143 3.0 6.0 0.00 0.00 0.00 78 1015.6
20260508142533 75 137 3.0 5.0 0.00 0.00 0.00 77 1015.5
20260508141524 73 178 2.0 4.0 0.00 0.00 0.00 78 1015.7
20260508140530 73 125 3.0 5.0 0.00 0.00 0.00 78 1015.9
20260508135541 72 57 2.0 4.0 0.00 0.00 0.00 80 1015.8
20260508134530 71 158 1.0 4.0 0.00 0.01 0.00 81 1015.9
20260508133556 71 37 3.0 5.0 0.00 0.01 0.00 81 1016.0
20260508132525 70 46 2.0 6.0 0.00 0.01 0.00 82 1015.8
20260508131534 70 16 3.0 8.0 0.00 0.01 0.00 83 1016.0
20260508130522 69 63 3.0 8.0 0.00 0.01 0.00 83 1016.2
20260508125531 69 65 3.0 6.0 0.00 0.01 0.00 84 1016.3
20260508124520 69 47 2.0 5.0 0.00 0.01 0.00 84 1016.5
20260508123528 69 58 3.0 6.0 0.00 0.01 0.00 84 1016.6
20260508122537 70 87 2.0 5.0 0.00 0.01 0.00 84 1016.3
20260508121525 70 107 2.0 5.0 0.00 0.01 0.00 84 1016.4
20260508120556 70 40 2.0 5.0 0.00 0.01 0.00 84 1015.9
20260508115546 69 71 2.0 5.0 0.00 0.01 0.00 84 1015.5
20260508114552 69 99 2.0 5.0 0.00 0.01 0.00 84 1015.8
20260508113540 69 100 2.0 3.0 0.00 0.01 0.00 84 1015.6
20260508112528 69 84 1.0 3.0 0.00 0.01 0.00 84 1016.1
20260508111537 69 69 1.0 4.0 0.00 0.01 0.00 84 1016.4
20260508110528 69 25 1.0 4.0 0.00 0.01 0.00 84 1016.1
20260508105534 69 0.0 0.0 0.00 0.01 0.00 84 1016.2
20260508104523 69 0.0 0.0 0.00 0.01 0.00 84 1015.9
20260508103531 69 45 0.0 1.0 0.00 0.01 0.00 84 1015.6
20260508102521 69 76 2.0 4.0 0.00 0.01 0.00 84 1015.4
20260508101529 69 34 2.0 4.0 0.00 0.01 0.00 84 1015.1
20260508100537 69 46 2.0 3.0 0.00 0.01 0.00 84 1014.8
20260508095546 69 112 2.0 4.0 0.00 0.01 0.00 85 1014.9
20260508094534 69 62 1.0 5.0 0.00 0.01 0.00 85 1014.8
20260508093523 69 60 3.0 6.0 0.00 0.01 0.00 85 1015.1
20260508092533 70 24 1.0 4.0 0.00 0.01 0.00 85 1015.1
20260508091522 70 54 2.0 4.0 0.00 0.01 0.00 85 1014.9
20260508090529 70 23 3.0 7.0 0.00 0.01 0.00 85 1014.9
20260508085538 70 15 1.0 4.0 0.00 0.01 0.00 85 1015.0
20260508084528 70 50 1.0 3.0 0.00 0.01 0.00 85 1015.1
20260508083534 70 46 2.0 4.0 0.00 0.01 0.00 85 1015.0
20260508082525 71 34 1.0 3.0 0.00 0.01 0.00 85 1014.9
20260508081533 71 51 1.0 4.0 0.00 0.01 0.00 85 1014.9
20260508080522 71 105 1.0 3.0 0.00 0.01 0.00 85 1015.1
20260508075529 71 45 0.0 2.0 0.00 0.01 0.00 85 1015.1
20260508074537 71 71 1.0 3.0 0.00 0.01 0.00 85 1015.3
20260508073527 71 89 1.0 4.0 0.00 0.01 0.00 85 1015.2
20260508072535 71 67 2.0 4.0 0.00 0.01 0.00 85 1015.0
20260508071524 71 35 2.0 4.0 0.00 0.01 0.00 85 1015.0
20260508070802 0 0.0 0.0 0.00 0.01 0.00 1015.0
20260508070532 71 104 1.0 3.0 0.00 0.01 0.00 85 1014.9
20260508065521 71 54 1.0 3.0 0.00 0.01 0.00 85 1015.1
20260508064533 72 90 0.0 2.0 0.00 0.01 0.00 85 1015.5
20260508063519 72 101 0.0 1.0 0.00 0.01 0.00 85 1015.5
20260508062528 72 0.0 0.0 0.00 0.01 0.00 85 1015.3
20260508061535 72 54 0.0 3.0 0.00 0.01 0.00 85 1015.4
20260508060525 72 98 1.0 3.0 0.00 0.01 0.00 85 1015.4
20260508055534 72 0.0 1.0 0.00 0.01 0.00 85 1015.7
20260508054522 72 35 0.0 3.0 0.00 0.01 0.00 85 1015.8
20260508053530 72 55 1.0 3.0 0.00 0.01 0.00 85 1015.8
20260508052520 72 49 1.0 4.0 0.00 0.01 0.00 84 1016.0
20260508051528 72 0.0 0.0 0.00 0.01 0.00 84 1015.8
20260508050535 72 41 0.0 2.0 0.00 0.01 0.00 84 1016.0
20260508045526 72 59 2.0 3.0 0.00 0.01 0.01 84 1016.1
20260508044534 72 1 1.0 3.0 0.00 0.01 0.01 84 1016.1
20260508043522 72 32 1.0 3.0 0.00 0.01 0.01 84 1016.1
20260508042530 72 67 2.0 5.0 0.00 0.01 0.01 84 1016.1
20260508041521 72 39 1.0 2.0 0.00 0.01 0.01 84 1016.1
20260508040548 72 29 2.0 3.0 0.00 0.01 0.01 83 1016.0
20260508035536 73 344 1.0 3.0 0.00 0.01 0.01 83 1016.6
20260508034526 73 40 0.0 2.0 0.00 0.01 0.01 83 1016.4
20260508033533 73 0 0.0 1.0 0.00 0.01 0.01 82 1016.3
20260508032523 73 29 2.0 5.0 0.00 0.01 0.01 82 1016.5
20260508031531 74 4 3.0 5.0 0.00 0.01 0.01 82 1016.8
20260508030520 74 27 1.0 4.0 0.00 0.01 0.01 81 1016.3
20260508025528 74 33 2.0 5.0 0.00 0.01 0.01 81 1016.1
20260508024537 74 91 1.0 5.0 0.00 0.01 0.01 81 1016.2
20260508023526 75 20 2.0 3.0 0.00 0.01 0.01 81 1016.1
20260508022554 75 28 0.0 3.0 0.00 0.01 0.01 81 1016.0
20260508021523 75 33 1.0 3.0 0.00 0.01 0.01 81 1015.9
20260508020531 75 316 1.0 3.0 0.00 0.01 0.01 81 1015.9
20260508015521 75 36 2.0 4.0 0.00 0.01 0.01 81 1015.4
20260508014529 75 315 0.0 1.0 0.00 0.01 0.01 81 1015.6
20260508013537 75 37 2.0 2.0 0.00 0.01 0.01 81 1015.4
20260508012526 75 0.0 0.0 0.00 0.01 0.01 81 1015.4
20260508011534 75 0.0 0.0 0.00 0.01 0.01 81 1015.3
20260508010545 75 58 1.0 3.0 0.00 0.01 0.01 82 1015.3
20260508005533 75 359 2.0 4.0 0.00 0.01 0.01 83 1015.0
20260508004521 75 340 1.0 3.0 0.00 0.01 0.01 83 1014.8
20260508003529 75 315 0.0 1.0 0.00 0.01 0.01 82 1014.9
20260508002537 75 331 1.0 3.0 0.00 0.01 0.01 82 1014.9
20260508001527 75 68 0.0 2.0 0.00 0.01 0.01 81 1014.9
20260508000535 75 18 2.0 4.0 0.00 0.01 0.01 81 1014.9
20260507235604 76 0.0 0.0 0.00 0.01 0.01 80 1014.8
20260507234532 76 357 1.0 2.0 0.00 0.01 0.01 80 1014.9
20260507233521 76 329 3.0 4.0 0.00 0.01 0.01 80 1014.7
20260507232529 76 350 1.0 2.0 0.00 0.01 0.01 78 1014.9
20260507231518 77 68 0.0 1.0 0.00 0.01 0.01 77 1015.0
20260507230527 77 18 2.0 3.0 0.00 0.01 0.01 76 1014.9
20260507225535 77 357 1.0 2.0 0.00 0.01 0.01 76 1015.0
20260507224544 78 345 2.0 3.0 0.00 0.01 0.01 74 1014.9
20260507223532 79 340 2.0 3.0 0.00 0.01 0.01 73 1014.8
20260507222543 80 346 2.0 3.0 0.00 0.01 0.01 72 1014.7
20260507221530 79 0.0 0.0 0.00 0.01 0.01 74 1014.7
20260507220519 78 0.0 0.0 0.00 0.01 0.01 74 1014.5
20260507215527 78 337 3.0 6.0 0.00 0.01 0.01 74 1014.4
20260507214535 78 0.0 0.0 0.00 0.01 0.01 75 1014.7
20260507213527 78 0.0 0.0 0.00 0.01 0.01 76 1014.3
20260507212533 79 0.0 0.0 0.00 0.01 0.01 73 1014.6
20260507211544 77 0.0 0.0 0.00 0.01 0.01 78 1014.5
20260507210531 76 0.0 0.0 0.00 0.01 0.01 77 1014.6
20260507205600 76 0.0 0.0 0.00 0.01 0.01 79 1014.8
20260507204529 75 0.0 0.0 0.00 0.01 0.01 79 1014.8
20260507203557 75 22 1.0 4.0 0.00 0.01 0.01 79 1014.8
20260507202545 75 359 2.0 3.0 0.00 0.01 0.01 79 1014.8
20260507201533 75 322 2.0 4.0 0.00 0.01 0.01 79 1014.9
20260507200523 75 356 2.0 3.0 0.00 0.01 0.01 79 1014.9
20260507195531 75 358 2.0 4.0 0.00 0.01 0.01 79 1015.0
20260507194521 76 338 3.0 5.0 0.00 0.01 0.01 78 1015.0
20260507193529 76 30 1.0 2.0 0.00 0.01 0.01 78 1015.0
20260507192536 74 23 2.0 3.0 0.00 0.01 0.01 80 1015.2
20260507191526 74 24 2.0 4.0 0.00 0.01 0.01 81 1015.3
20260507190534 74 0.0 0.0 0.00 0.01 0.01 81 1015.4